STARLINK-11605, 63134

Orbit data source: Space-Track

STARLINK-11605, 63134 is a payload satellite owned by SpaceX/Seattle (US) in LEO that was launched on Mon, 03 Mar 2025 UTC via an FALCON 9 launch vehicle from the Air Force Eastern Test Range (AFETR). Payload-class satellites include a variety of spacecraft equipped with specific instruments for various scientific and technological missions. These include communications satellites like Starlink; space stations such as the ISS; scientific satellites like the Hubble; Earth observation satellites from companies like Planet Labs, Umbra, and HawkEye 360; GPS; miniature CubeSats for education and research; and military/defense satellites.

Loading next visibility...
Identifier
63134, 2025-043C
Orbit
LEO
Country
Flag of USUS
Related business
Manufacturer
SpaceX/Seattle
Mission
Operational Commercial Communications
Bus & Motor
STARLINK V2MD, Unknown motor
Mass
960 kg wet, ~910 kg dry
Launch date (UTC)
2025-03-03 (8 months ago)
Launch vehicle
FALCON 9
Launch site
Air Force Eastern Test Range (AFETR)
Object type
Payload
Rocket body
Debris
Shape & HBR
Box + 2 Pan, 18.1 m
Radar Cross Section
36.964 m², Large (>1 m²)

Expand to show TLE details & history
Last TLE update: 13 hours ago

TLE from 13 hours ago
0 STARLINK-11605
1 63134U 25043C   25306.41888223  .00390908  00000-0  28884-2 0  9994
2 63134  42.9981 298.0536 0001161 321.6916  38.3870 15.71008526 39334
Epoch: 2025-11-02T10:03Z
TLE epoch observation values (Epoch: 2025-11-02T10:03:11.424Z)
Latitude
0.00004°
Longitude
105.32115°
Altitude
355.172 km
Speed
7.698 km/s
True Right ascension
19h 52m 12s
True Declination
0° 00' 00"
Sunlit
Object was in daylight at epoch
Visualization orbit readout
Latitude
Unknown
Longitude
Unknown
Altitude
Unknown
Speed
Unknown
Apparent Right ascension
Unknown
Apparent Declination
Unknown
Sunlit
N/A
Visualization observer readout
Local Sidereal Time
18:38:30
Azimuth
Unknown
Elevation
Unknown
Doppler factor
Unknown
Orbital elements
Apogee altitude
358.778 km
Perigee altitude
357.213 km
Semi-major axis
6,736.132 km
Eccentricity
0.00012
Inclination
42.9981°
RAAN
298.0536°
Arg. of periapsis
321.6916°
True anomaly
38.39526°
Mean anomaly
38.387°
Eccentric anomaly
38.39113°
Mean motion
3.92579 °/min
Orbital period
91.7 mins
BSTAR
0.0028884
Loading maneuver chart data...
Computing Atmospheric mass density...
Loading historical data...
Loading historical data...
Loading historical data...
Loading historical data...
Loading historical data...
Loading historical data...
Loading historical data...

Documentation

Showing up to 5 results
|